Zurück zum Katalog

BREEZE-M DEB

TANK

AktivHEO
NORAD 41390·DEBRIS·🇷🇺 Russia

Gestartet Mar 14, 2016 von Baikonur Cosmodrome

Loading…

Nächste Überflüge (nächste 24 Stunden)

TLE

AktuellSource: Space-Track

Epoche: Sep 14, 2026, 15:27 UTC

1 41390U 16017C   26257.64406549 -.00000040  00000-0  24961-3 0  9992
2 41390  51.6923  30.3214 5968283 315.5050   9.7598  3.82673562146841

Verfolge BREEZE-M DEB in Echtzeit mit AllMySat

Download on the App Store